[[{"header":{"parameterUnit":"m.s-1","parameterCategory":1,"la1":30.2991,"la2":30.254,"lo1":-89.0895,"lo2":-89.0444,"dy":0.0017,"dx":0.0017,"nx":28,"ny":28,"refTime":"2024-11-30T03:00:00:Z","depth":0,"parameterNumber":2,"parameterNumberName":"U-component_of_WINDS"},"data":[0,0,0,0,0,0,0,0,0,0,0,0,0,0,0,0,0,0,0,0,0,0,0,0,0,0,0,0,0,0,0,0,0,0,0,0,0,0,0,0,0,0,0,0,0,0,0,0,0,0,0,0,0,0,0,0,0,0,0.2319,0.2319,0,0.2332,0.2332,0.2332,0.2394,0.2395,0.2397,0.2398,0.241,0.2409,0.2408,0,0,0,0,0,0,0,0,0,0,0,0,0,0.2345,0.2344,0.2319,0.2319,0.2319,0.2332,0.2332,0.2332,0.2393,0.2395,0.2397,0.2399,0.241,0.2409,0.2408,0,0,0,0,0,0,0,0,0,0,0,0,0,0.2344,0.2344,0.2319,0.2351,0.2354,0.2332,0.2332,0.2332,0.2393,0.2395,0.2397,0.2399,0.2411,0.2409,0.2408,0.2354,0,0,0.2403,0.2402,0,0,0,0,0,0,0,0,0.2344,0.2342,0.2346,0.2349,0.2352,0.2363,0.2346,0.234,0.2392,0.2378,0.2398,0.24,0.2392,0.2393,0.239,0.2355,0.2356,0.2403,0.2402,0.2401,0.2401,0,0,0,0,0,0,0,0.2344,0.2342,0.2324,0.2346,0.235,0.2365,0.2367,0.2345,0.2373,0.238,0.2384,0.2385,0.2395,0.2392,0.2391,0.2356,0.2403,0.2401,0.24,0.24,0.2278,0.2275,0,0,0,0,0,0,0.2339,0.2342,0.2324,0.2324,0.2353,0.2362,0.2365,0.2358,0.2373,0.2378,0.2383,0.2388,0.2393,0.2393,0.2392,0.2331,0.2401,0.24,0.2399,0.228,0.2277,0.2275,0,0,0,0,0,0,0.234,0.2337,0.2323,0.2334,0.2334,0.236,0.2351,0.2357,0.2354,0.2376,0.2381,0.2375,0.2395,0.2394,0.2363,0.2332,0.2399,0.2397,0.2283,0.2279,0.2276,0.2208,0,0,0,0,0,0,0.234,0.2337,0.2317,0.2333,0.2333,0.2295,0.2349,0.2355,0.2351,0.2357,0.237,0.2374,0.2396,0.2365,0.2362,0.2331,0.2396,0.2286,0.2281,0.2277,0.2213,0.2202,0.2193,0,0,0,0,0,0.2341,0.2297,0.2316,0.2313,0.2309,0.2293,0.2292,0.232,0.2348,0.2329,0.2343,0.2373,0.2336,0.2362,0.2358,0.2326,0.2288,0.2282,0.2277,0.2217,0.2204,0.2193,0,0,0,0,0,0,0.2276,0.23,0.2321,0.2281,0.2284,0.2303,0.2279,0.2305,0.23,0.2306,0.234,0.2342,0.2306,0.2314,0.2342,0.2276,0.2317,0.2311,0.2272,0.226,0.2251,0.225,0.2395,0,0,0,0,0,0.2257,0.2242,0.2264,0.2227,0.2227,0.2253,0.2247,0.2268,0.2272,0.2274,0.2286,0.2289,0.2278,0.2269,0.226,0.2214,0.2218,0.2191,0.2181,0.2173,0.2167,0.2143,0.2131,0.2257,0.2257,0.2258,0,0,0.2218,0.2229,0.2217,0.2214,0.2219,0.2203,0.2253,0.2234,0.2222,0.2271,0.2243,0.2251,0.2257,0.2218,0.2202,0.2223,0.2133,0.2166,0.2159,0.2158,0.2136,0.2124,0.2113,0.2254,0.2255,0.2255,0,0,0.2138,0.2145,0.2115,0.2119,0.2126,0.2143,0.2136,0.2151,0.2158,0.2131,0.2167,0.2153,0.2133,0.2136,0.2134,0.2055,0.2083,0.2051,0.2,0.1976,0.1966,0.1958,0.1929,0.1919,0.2046,0.2045,0.2045,0,0.2088,0.2065,0.2096,0.2074,0.2071,0.2115,0.2085,0.2087,0.209,0.2087,0.2111,0.2087,0.2094,0.2056,0.2037,0.2035,0.2027,0.205,0.1965,0.1957,0.1949,0.1923,0.1912,0.2042,0.2042,0.2042,0.2043,0,0.2003,0.1987,0.1961,0.1964,0.1959,0.1932,0.1959,0.195,0.1971,0.1985,0.1957,0.1967,0.196,0.1953,0.1973,0.1918,0.1931,0.1959,0.2001,0.1933,0.1908,0.1898,0.2036,0.2037,0.2038,0.2039,0,0,0.1882,0.1903,0.1893,0.1895,0.1906,0.1894,0.1869,0.1864,0.1855,0.1856,0.1836,0.1818,0.1845,0.1843,0.1864,0.1843,0.178,0.1875,0.1875,0.1856,0.1719,0.1698,0.1685,0.1798,0.1797,0.1795,0.1719,0,0.1805,0.1766,0.1793,0.1748,0.1734,0.1775,0.1754,0.1758,0.1771,0.176,0.1774,0.1761,0.1797,0.1796,0.1778,0.1791,0.1753,0.1797,0.178,0.1779,0.1777,0.1673,0.165,0.1577,0.1709,0.1708,0.1707,0,0.1711,0.1708,0.1662,0.1677,0.1671,0.1652,0.1649,0.1638,0.1644,0.1655,0.1653,0.1679,0.1656,0.1697,0.1666,0.1695,0.169,0.1696,0.1693,0.1693,0.1738,0.1669,0.1555,0.1544,0.1692,0.1693,0.1694,0,0.1627,0.1612,0.1583,0.1583,0.1599,0.1584,0.159,0.1598,0.1593,0.159,0.1587,0.1581,0.1578,0.1573,0.1597,0.1625,0.1562,0.1605,0.157,0.1569,0.1555,0.1555,0.1438,0.1551,0.1551,0.1551,0.1552,0,0.1538,0.1509,0.1545,0.1527,0.1495,0.1526,0.1493,0.1504,0.151,0.1495,0.153,0.1514,0.1547,0.1535,0.1553,0.1524,0.1522,0.153,0.1535,0.1527,0.1526,0.1524,0.1529,0.1549,0.1549,0.155,0.155,0,0.1439,0.1463,0.1433,0.1451,0.1455,0.143,0.1445,0.1429,0.1445,0.1424,0.1421,0.1445,0.1432,0.1456,0.1446,0.1459,0.1418,0.1431,0.1416,0.142,0.1383,0.1386,0.126,0.1245,0.1368,0.1366,0.1365,0,0.1381,0.136,0.1375,0.1368,0.1372,0.1359,0.1354,0.1384,0.1377,0.1382,0.1365,0.1355,0.1349,0.1327,0.1343,0.1335,0.1349,0.1305,0.1348,0.134,0.1348,0.1349,0.1347,0.1296,0.1295,0.1293,0.1292,0,0.1276,0.1289,0.1281,0.1276,0.127,0.1268,0.1268,0.126,0.1291,0.1282,0.127,0.1265,0.1255,0.1245,0.1242,0.1247,0.1275,0.1279,0.127,0.1261,0.1254,0.1257,0.1392,0.1282,0.1283,0.1283,0.1284,0.1284,0.1196,0.1178,0.1187,0.1176,0.118,0.118,0.1166,0.1179,0.117,0.1165,0.1183,0.1166,0.1172,0.117,0.1173,0.116,0.118,0.1167,0.1164,0.116,0.1154,0.1255,0.116,0.116,0.116,0.1161,0.1161,0,0.1092,0.11,0.109,0.109,0.1082,0.1109,0.1111,0.1102,0.1087,0.1091,0.1084,0.107,0.106,0.1076,0.1069,0.1055,0.1068,0.1052,0.1054,0.1054,0.1138,0.1146,0.1043,0.1043,0.1043,0.1043,0.1043,0.1043,0.1037,0.1009,0.1023,0.0997,0.1005,0.0989,0.0988,0.0988,0.0991,0.0974,0.0966,0.0976,0.0984,0.0978,0.097,0.0975,0.0971,0.0951,0.096,0.1037,0.1049,0.106,0.1068,0.095,0.095,0.0878,0.0877,0.0877]},{"header":{"parameterUnit":"m.s-1","parameterCategory":1,"la1":30.2991,"la2":30.254,"lo1":-89.0895,"lo2":-89.0444,"dy":0.0017,"dx":0.0017,"nx":28,"ny":28,"refTime":"2024-11-30T03:00:00:Z","depth":0,"parameterNumber":3,"parameterNumberName":"V-component_of_WINDS"},"data":[0,0,0,0,0,0,0,0,0,0,0,0,0,0,0,0,0,0,0,0,0,0,0,0,0,0,0,0,0,0,0,0,0,0,0,0,0,0,0,0,0,0,0,0,0,0,0,0,0,0,0,0,0,0,0,0,0,0,-1.7196,-1.7196,0,-1.7199,-1.7199,-1.7199,-1.718,-1.718,-1.7179,-1.7179,-1.7182,-1.7183,-1.7183,0,0,0,0,0,0,0,0,0,0,0,0,0,-1.7172,-1.7172,-1.7196,-1.7196,-1.7196,-1.7199,-1.7199,-1.7199,-1.7181,-1.718,-1.7179,-1.7179,-1.7182,-1.7183,-1.7183,0,0,0,0,0,0,0,0,0,0,0,0,0,-1.7179,-1.7172,-1.7196,-1.7187,-1.7186,-1.7199,-1.7199,-1.72,-1.7181,-1.718,-1.7179,-1.7178,-1.7182,-1.7182,-1.7183,-1.7205,0,0,-1.7186,-1.7186,0,0,0,0,0,0,0,0,-1.7179,-1.718,-1.7188,-1.7187,-1.7187,-1.7189,-1.7192,-1.7201,-1.7181,-1.7183,-1.7179,-1.7178,-1.7185,-1.7185,-1.7188,-1.7205,-1.7206,-1.7186,-1.7187,-1.7187,-1.7187,0,0,0,0,0,0,0,-1.7178,-1.718,-1.7197,-1.7188,-1.7187,-1.7182,-1.7183,-1.7194,-1.7188,-1.7182,-1.7181,-1.7182,-1.7184,-1.7187,-1.7188,-1.7206,-1.7186,-1.7187,-1.7187,-1.7188,-1.7242,-1.7243,0,0,0,0,0,0,-1.7179,-1.718,-1.7197,-1.7197,-1.7181,-1.7184,-1.7184,-1.7189,-1.7188,-1.7187,-1.7183,-1.7181,-1.7186,-1.7187,-1.7188,-1.7215,-1.7187,-1.7188,-1.7188,-1.7241,-1.7242,-1.7243,0,0,0,0,0,0,-1.7179,-1.7181,-1.7197,-1.7188,-1.719,-1.7185,-1.7191,-1.7189,-1.7192,-1.7188,-1.7187,-1.7187,-1.7185,-1.7187,-1.7201,-1.7214,-1.7188,-1.7189,-1.724,-1.7242,-1.7243,-1.7267,0,0,0,0,0,0,-1.7178,-1.7181,-1.7189,-1.7188,-1.719,-1.7211,-1.7191,-1.719,-1.7194,-1.7192,-1.7192,-1.7191,-1.7185,-1.72,-1.7202,-1.7215,-1.719,-1.7239,-1.7241,-1.7242,-1.7265,-1.7269,-1.7273,0,0,0,0,0,-1.7177,-1.7196,-1.719,-1.7192,-1.7201,-1.7211,-1.7212,-1.7205,-1.7195,-1.7203,-1.7201,-1.7191,-1.7212,-1.7202,-1.7204,-1.7217,-1.7238,-1.724,-1.7242,-1.7264,-1.7269,-1.7273,0,0,0,0,0,0,-1.7198,-1.7195,-1.7189,-1.7207,-1.721,-1.7208,-1.7219,-1.7211,-1.7216,-1.7214,-1.7204,-1.7204,-1.7221,-1.722,-1.7209,-1.7239,-1.7223,-1.7226,-1.7239,-1.7244,-1.7247,-1.7248,-1.7191,0,0,0,0,0,-1.7204,-1.7213,-1.7211,-1.7227,-1.7229,-1.7224,-1.7228,-1.7222,-1.7224,-1.7225,-1.7224,-1.7226,-1.7233,-1.7238,-1.7244,-1.7265,-1.7265,-1.7275,-1.7279,-1.7282,-1.7285,-1.7296,-1.7301,-1.725,-1.725,-1.725,0,0,-1.7218,-1.7218,-1.7224,-1.7231,-1.7233,-1.7242,-1.7224,-1.7235,-1.7242,-1.7226,-1.7241,-1.724,-1.7241,-1.726,-1.7267,-1.726,-1.7299,-1.7284,-1.7287,-1.7288,-1.7299,-1.7304,-1.7308,-1.7252,-1.7251,-1.7251,0,0,-1.7249,-1.7249,-1.7264,-1.7265,-1.7267,-1.7264,-1.7267,-1.7267,-1.7266,-1.728,-1.7269,-1.7277,-1.7289,-1.7291,-1.7294,-1.7326,-1.7317,-1.7328,-1.7348,-1.7359,-1.7363,-1.7367,-1.7379,-1.7384,-1.733,-1.733,-1.733,0,-1.7266,-1.728,-1.7272,-1.7284,-1.7288,-1.7274,-1.7289,-1.7291,-1.7295,-1.7298,-1.7289,-1.7305,-1.7305,-1.7324,-1.7332,-1.7334,-1.7338,-1.7328,-1.7363,-1.7367,-1.737,-1.7382,-1.7386,-1.7332,-1.7332,-1.7331,-1.7331,0,-1.7302,-1.7312,-1.7323,-1.7328,-1.7333,-1.7346,-1.734,-1.7346,-1.734,-1.7337,-1.7352,-1.7352,-1.7358,-1.7362,-1.7356,-1.738,-1.7375,-1.7365,-1.735,-1.7377,-1.7388,-1.7392,-1.7334,-1.7333,-1.7333,-1.7332,0,0,-1.7346,-1.7346,-1.7351,-1.7353,-1.7355,-1.7362,-1.7375,-1.7382,-1.7388,-1.739,-1.7401,-1.7412,-1.7403,-1.7406,-1.74,-1.741,-1.7436,-1.7398,-1.7398,-1.7407,-1.7465,-1.7473,-1.7479,-1.743,-1.7431,-1.7431,-1.7465,0,-1.7377,-1.7399,-1.7392,-1.7415,-1.7425,-1.7412,-1.7423,-1.7425,-1.7423,-1.743,-1.7427,-1.7436,-1.7422,-1.7424,-1.7434,-1.7431,-1.7448,-1.7429,-1.7441,-1.7441,-1.7442,-1.7484,-1.7493,-1.7525,-1.7469,-1.747,-1.747,0,-1.7416,-1.7422,-1.7446,-1.7446,-1.745,-1.746,-1.7466,-1.7474,-1.7476,-1.7473,-1.7477,-1.7469,-1.7481,-1.7465,-1.7482,-1.7469,-1.7474,-1.7473,-1.7474,-1.7476,-1.7458,-1.7489,-1.7535,-1.754,-1.7477,-1.7476,-1.7476,0,-1.7448,-1.7461,-1.7477,-1.748,-1.748,-1.7488,-1.7489,-1.749,-1.7495,-1.75,-1.7503,-1.7509,-1.7513,-1.7517,-1.7511,-1.75,-1.753,-1.7513,-1.7529,-1.7529,-1.7537,-1.7537,-1.7586,-1.7538,-1.7538,-1.7538,-1.7537,0,-1.7484,-1.75,-1.7492,-1.7502,-1.7519,-1.751,-1.7527,-1.7526,-1.7528,-1.7537,-1.7526,-1.7535,-1.7526,-1.7534,-1.7529,-1.7545,-1.7546,-1.7545,-1.7544,-1.7547,-1.7548,-1.7551,-1.7549,-1.7539,-1.7539,-1.7538,-1.7538,0,-1.7523,-1.7518,-1.7535,-1.7535,-1.7535,-1.7548,-1.7547,-1.7556,-1.7553,-1.7566,-1.7568,-1.7563,-1.7572,-1.7566,-1.7576,-1.7572,-1.7593,-1.7588,-1.7593,-1.7592,-1.761,-1.7609,-1.7664,-1.7671,-1.7617,-1.7617,-1.7617,0,-1.7547,-1.7559,-1.756,-1.7566,-1.7568,-1.7577,-1.7582,-1.7574,-1.758,-1.7583,-1.7592,-1.7601,-1.7607,-1.7623,-1.762,-1.7627,-1.7623,-1.7642,-1.7624,-1.7627,-1.7625,-1.7625,-1.7627,-1.7646,-1.7646,-1.7647,-1.7647,0,-1.7591,-1.7589,-1.7597,-1.7604,-1.761,-1.7616,-1.762,-1.7625,-1.7617,-1.7624,-1.7634,-1.7639,-1.7649,-1.7657,-1.7663,-1.7664,-1.7655,-1.7653,-1.7657,-1.7661,-1.7664,-1.7664,-1.7604,-1.7652,-1.7651,-1.7651,-1.7651,-1.7651,-1.7625,-1.7635,-1.7638,-1.7647,-1.7649,-1.7654,-1.7663,-1.7661,-1.7669,-1.7677,-1.7671,-1.7683,-1.7685,-1.7692,-1.7694,-1.7703,-1.7695,-1.7701,-1.7703,-1.7705,-1.7708,-1.7662,-1.7704,-1.7703,-1.7703,-1.7703,-1.7703,0,-1.7669,-1.767,-1.7679,-1.7686,-1.7693,-1.7684,-1.7688,-1.7695,-1.7706,-1.7708,-1.7715,-1.7727,-1.7735,-1.7733,-1.7741,-1.7748,-1.7745,-1.7751,-1.7751,-1.7751,-1.7714,-1.771,-1.7754,-1.7754,-1.7754,-1.7754,-1.7754,-1.7754,-1.7694,-1.7711,-1.7708,-1.7727,-1.7727,-1.7739,-1.7743,-1.7747,-1.7749,-1.7763,-1.777,-1.7768,-1.7769,-1.7777,-1.7785,-1.7784,-1.7788,-1.7796,-1.7794,-1.7759,-1.7754,-1.7749,-1.7746,-1.7796,-1.7796,-1.783,-1.7831,-1.7831]}]]